Weather History for Claremore, OK

Change the Weather History Date:

Friday, June 28, 2013

  Actual Average (KTUL) Record (KTUL)
Temperature  
Mean Temperature 80 °F 81 °F  
Max Temperature 91 °F 91 °F 106 °F (1925)
Min Temperature 69 °F 71 °F 58 °F (1974)
Cooling Degree Days 15 16  
Month to date cooling degree days 347  
Year to date cooling degree days 581  
Since 1 June cooling degree days 347  
Growing Degree Days 30 (Base 50)    
Moisture  
Dew Point 65 °F    
Average Humidity 59    
Maximum Humidity 88    
Minimum Humidity 36    
Precipitation  
Precipitation 0.00 in 0.14 in 2.75 in (1977)
Month to date precipitation 4.46  
Year to date precipitation 20.96  
Sea Level Pressure  
Sea Level Pressure 29.93 in    
Wind  
Wind Speed 6 mph (NNW)    
Max Wind Speed 12 mph    
Max Gust Speed 18 mph    
Visibility 10 miles    
Events      
T = Trace of Precipitation, MM = Missing Value Source: NWS Daily Summary

Daily Weather History Graph

Daily Weather History Graph

Search for Another Location

Airport:

Trip Planner

Search our weather history database for the weather conditions in past years. The results will help you decide how hot, cold, wet, or windy it might be!

Date:

Astronomy

Jun. 28, 2013 Rise Set
Actual Time 6:06 AM CDT 8:43 PM CDT
Civil Twilight 5:36 AM CDT 9:13 PM CDT
Nautical Twilight 4:58 AM CDT 9:51 PM CDT
Astronomical Twilight 4:16 AM CDT 10:33 PM CDT
Moon No Moon Rise 12:04 PM CDT (6/28)
Length of Visible Light 15h 37m
Length of Day
14h 36m
Waning Gibbous, 66% of the Moon is Illuminated
Jun 28
Waning Gibbous
Jun 29
Last Quarter
Jul 8
New
Jul 15
First Quarter
Jul 22
Full

Hourly Weather History & Observations

Time (CDT) Temp. Heat Index Dew Point Humidity Pressure Visibility Wind Dir Wind Speed Gust Speed Precip Events Conditions
12:15 AM 78.8 °F - 64.4 °F 61% 29.91 in 10.0 mi SSW 8.1 mph - N/A   Clear
12:35 AM 78.8 °F - 62.6 °F 57% 29.90 in 10.0 mi SSW 9.2 mph - N/A   Clear
12:55 AM 78.8 °F - 62.6 °F 57% 29.89 in 10.0 mi SSW 9.2 mph - N/A   Clear
1:35 AM 77.0 °F - 62.6 °F 61% 29.91 in 10.0 mi NE 4.6 mph - N/A   Clear
1:55 AM 75.2 °F - 64.4 °F 69% 29.90 in 10.0 mi Calm Calm - N/A   Clear
2:15 AM 73.4 °F - 64.4 °F 73% 29.89 in 10.0 mi ENE 3.5 mph - N/A   Clear
2:35 AM 73.4 °F - 64.4 °F 73% 29.87 in 10.0 mi Calm Calm - N/A   Clear
2:55 AM 73.4 °F - 64.4 °F 73% 29.87 in 10.0 mi ESE 5.8 mph - N/A   Clear
3:15 AM 73.4 °F - 64.4 °F 73% 29.88 in 10.0 mi Calm Calm - N/A   Clear
3:35 AM 73.4 °F - 64.4 °F 73% 29.91 in 10.0 mi West 3.5 mph - N/A   Clear
3:55 AM 71.6 °F - 64.4 °F 78% 29.91 in 10.0 mi WNW 5.8 mph - N/A   Clear
4:15 AM 73.4 °F - 64.4 °F 73% 29.91 in 10.0 mi NNW 3.5 mph - N/A   Clear
4:35 AM 71.6 °F - 64.4 °F 78% 29.94 in 10.0 mi WSW 3.5 mph - N/A   Clear
4:55 AM 71.6 °F - 64.4 °F 78% 29.95 in 10.0 mi Calm Calm - N/A   Clear
5:15 AM 71.6 °F - 64.4 °F 78% 29.95 in 10.0 mi West 3.5 mph - N/A   Clear
5:35 AM 71.6 °F - 64.4 °F 78% 29.95 in 10.0 mi WNW 5.8 mph - N/A   Clear
5:55 AM 69.8 °F - 66.2 °F 88% 29.97 in 10.0 mi West 5.8 mph - N/A   Clear
6:15 AM 69.8 °F - 66.2 °F 88% 29.97 in 10.0 mi West 4.6 mph - N/A   Clear
6:35 AM 69.8 °F - 66.2 °F 88% 29.96 in 10.0 mi West 3.5 mph - N/A   Clear
6:55 AM 71.6 °F - 68.0 °F 88% 29.97 in 10.0 mi West 5.8 mph - N/A   Clear
7:55 AM 75.2 °F - 68.0 °F 78% 29.98 in 10.0 mi NNW 5.8 mph - N/A   Clear
8:15 AM 77.0 °F - 68.0 °F 74% 29.98 in 10.0 mi North 6.9 mph - N/A   Clear
8:35 AM 77.0 °F - 68.0 °F 74% 29.98 in 10.0 mi North 8.1 mph - N/A   Clear
8:55 AM 78.8 °F - 69.8 °F 74% 29.99 in 10.0 mi NNW 5.8 mph - N/A   Clear
9:15 AM 78.8 °F - 69.8 °F 74% 29.99 in 10.0 mi NNW 9.2 mph - N/A   Clear
9:35 AM 80.6 °F 83.9 °F 69.8 °F 70% 29.99 in 10.0 mi North 5.8 mph - N/A   Clear
9:55 AM 80.6 °F 83.2 °F 68.0 °F 65% 29.99 in 10.0 mi North 8.1 mph - N/A   Clear
10:15 AM 82.4 °F 86.3 °F 69.8 °F 66% 30.00 in 10.0 mi NNW 8.1 mph - N/A   Clear
10:35 AM 82.4 °F 86.3 °F 69.8 °F 66% 30.00 in 10.0 mi North 6.9 mph - N/A   Clear
10:55 AM 82.4 °F 85.4 °F 68.0 °F 62% 30.00 in 10.0 mi North 9.2 mph - N/A   Clear
11:15 AM 82.4 °F 86.3 °F 69.8 °F 66% 30.00 in 10.0 mi North 6.9 mph - N/A   Clear
11:35 AM 84.2 °F 88.4 °F 69.8 °F 62% 30.00 in 10.0 mi NNW 6.9 mph - N/A   Clear
11:55 AM 84.2 °F 88.4 °F 69.8 °F 62% 30.00 in 10.0 mi NNW 9.2 mph - N/A   Clear
12:15 PM 86.0 °F 89.4 °F 68.0 °F 55% 30.00 in 10.0 mi NW 9.2 mph - N/A   Clear
12:35 PM 86.0 °F 90.4 °F 69.8 °F 58% 30.00 in 10.0 mi North 4.6 mph - N/A   Clear
12:55 PM 87.8 °F 91.4 °F 68.0 °F 52% 29.99 in 10.0 mi North 6.9 mph - N/A   Clear
1:15 PM 87.8 °F 91.4 °F 68.0 °F 52% 29.99 in 10.0 mi NNE 6.9 mph - N/A   Clear
1:35 PM 87.8 °F 91.4 °F 68.0 °F 52% 29.98 in 10.0 mi WNW 8.1 mph - N/A   Clear
2:15 PM 89.6 °F 93.4 °F 68.0 °F 49% 29.97 in 10.0 mi Calm Calm - N/A   Clear
2:35 PM 89.6 °F 91.1 °F 64.4 °F 43% 29.96 in 10.0 mi North 4.6 mph - N/A   Clear
2:55 PM 89.6 °F 91.1 °F 64.4 °F 43% 29.95 in 10.0 mi NNW 8.1 mph - N/A   Clear
3:15 PM 89.6 °F 91.1 °F 64.4 °F 43% 29.94 in 10.0 mi WNW 6.9 mph - N/A   Clear
3:35 PM 91.4 °F 91.4 °F 60.8 °F 36% 29.93 in 10.0 mi North 6.9 mph - N/A   Clear
3:55 PM 91.4 °F 91.4 °F 60.8 °F 36% 29.93 in 10.0 mi NNW 6.9 mph - N/A   Clear
4:15 PM 91.4 °F 92.1 °F 62.6 °F 38% 29.93 in 10.0 mi North 11.5 mph - N/A   Clear
4:35 PM 91.4 °F 92.1 °F 62.6 °F 38% 29.92 in 10.0 mi NNW 6.9 mph 16.1 mph N/A   Clear
4:55 PM 91.4 °F 92.1 °F 62.6 °F 38% 29.91 in 10.0 mi NW 10.4 mph - N/A   Clear
5:15 PM 91.4 °F 92.1 °F 62.6 °F 38% 29.91 in 10.0 mi NNW 8.1 mph - N/A   Clear
5:35 PM 91.4 °F 92.1 °F 62.6 °F 38% 29.91 in 10.0 mi North 8.1 mph - N/A   Clear
5:55 PM 91.4 °F 92.1 °F 62.6 °F 38% 29.90 in 10.0 mi NW 6.9 mph - N/A   Clear
6:15 PM 91.4 °F 91.4 °F 60.8 °F 36% 29.89 in 10.0 mi NNW 9.2 mph - N/A   Clear
6:35 PM 91.4 °F 92.1 °F 62.6 °F 38% 29.89 in 10.0 mi NNW 9.2 mph - N/A   Clear
6:55 PM 89.6 °F 90.1 °F 62.6 °F 40% 29.88 in 10.0 mi NNW 5.8 mph - N/A   Clear
7:15 PM 87.8 °F 89.4 °F 64.4 °F 46% 29.88 in 10.0 mi Calm Calm - N/A   Clear
7:35 PM 87.8 °F 89.4 °F 64.4 °F 46% 29.88 in 10.0 mi North 3.5 mph - N/A   Scattered Clouds
7:55 PM 86.0 °F 87.3 °F 64.4 °F 48% 29.88 in 10.0 mi North 4.6 mph - N/A   Clear
8:15 PM 86.0 °F 88.2 °F 66.2 °F 51% 29.89 in 10.0 mi North 8.1 mph 18.4 mph N/A   Clear
8:35 PM 84.2 °F 86.6 °F 66.2 °F 55% 29.89 in 10.0 mi North 5.8 mph - N/A   Clear
8:55 PM 82.4 °F 83.9 °F 64.4 °F 54% 29.89 in 10.0 mi North 5.8 mph - N/A   Clear
9:15 PM 82.4 °F 83.4 °F 62.6 °F 51% 29.89 in 10.0 mi North 8.1 mph - N/A   Clear
9:35 PM 82.4 °F 82.9 °F 60.8 °F 48% 29.89 in 10.0 mi North 6.9 mph - N/A   Clear
9:55 PM 80.6 °F 81.5 °F 60.8 °F 51% 29.90 in 10.0 mi North 5.8 mph - N/A   Clear
10:15 PM 80.6 °F 81.1 °F 59.0 °F 48% 29.90 in 10.0 mi North 5.8 mph - N/A   Clear
10:35 PM 78.8 °F - 59.0 °F 51% 29.90 in 10.0 mi North 6.9 mph - N/A   Clear
10:55 PM 78.8 °F - 59.0 °F 51% 29.90 in 10.0 mi North 4.6 mph - N/A   Clear
11:15 PM 77.0 °F - 59.0 °F 54% 29.91 in 10.0 mi NNE 5.8 mph - N/A   Clear
11:35 PM 73.4 °F - 59.0 °F 61% 29.91 in 10.0 mi NNE 4.6 mph - N/A   Clear
11:55 PM 71.6 °F - 59.0 °F 64% 29.91 in 5.0 mi North 5.8 mph - N/A   Haze